Tracking 30744 objects as of 23-Jun-2025
HD Live streaming from Space Station
objects crossing your sky now

FENGYUN 1C DEB

Track FENGYUN 1C DEB now!
10-day predictions


NORAD ID: 30656
Int'l Code: 1999-025APN
Perigee: 736.5 km
Apogee: 782.6 km
Inclination: 99.0 °
Period: 99.9 minutes
Semi major axis: 7130 km
RCS: 0.021 m2 (small)
Launch date: May 10, 1999
Source: People's Republic of China (PRC)
Launch site: Taiyaun Space Center, China (TSC)

Note: This is SATELLITE DEBRIS
Your satellite tracking list
Your tracking list is empty




NASA's NSSDC Master Catalog

Two Line Element Set (TLE):
1 30656U 99025APN 25173.39910687  .00005231  00000-0  16034-2 0  9993
2 30656  99.0110 337.4108 0032324 236.6795 123.1296 14.41843105945856
Source of the keplerian elements: AFSPC